Regional Weather Roundup
Issued by NWS

Home | Current Version | Previous Version | Graphics & Text | Print | Product List | Glossary On
Versions: 1 2 3 4 5 6 7 8 9 10 11 12 13 14 15 16 17 18 19 20 21 22 23 24 25 26 27 28 29 30 31 32 33 34 35 36 37 38 39 40 41 42 43 44 45 46 47 48 49 50
499
ASUS45 KBOI 270910
RWRID

IDAHO REGIONAL WEATHER ROUNDUP
NATIONAL WEATHER SERVICE BOISE ID
200 AM MST MON FEB 27 2017

NOTE: "FAIR" INDICATES FEW OR NO CLOUDS BELOW 12000 FEET
WITH NO SIGNIFICANT WEATHER AND/OR OBSTRUCTIONS TO VISIBILITY

IDZ012-014-271000-
SOUTHWEST IDAHO


CITY           SKY/WX    TMP DP  RH WIND       PRES   REMARKS
BOISE          CLOUDY    31  22  69 SE13      29.64S WCI  21
CALDWELL       MIX PCPN  31  26  82 S9        29.68R WCI  23
MOUNTAIN HOME  PTCLDY    27  27 100 SE13      29.66R WCI  17
$$

IDZ016-017-271000-
SOUTHCENTRAL IDAHO


CITY           SKY/WX    TMP DP  RH WIND       PRES   REMARKS
BURLEY         CLOUDY    30  24  78 SW9       29.63S WCI  22
JEROME           N/A    N/A N/A N/A MISG      29.64F
TWIN FALLS     MOCLDY    25  22  88 S9        29.63F WCI  15
$$

IDZ019>023-271000-
SOUTHEAST IDAHO


CITY           SKY/WX    TMP DP  RH WIND       PRES   REMARKS
IDAHO FALLS    CLOUDY    22  21  96 S6        29.62R WCI  14
POCATELLO      CLOUDY    27  22  81 SW9       29.63F WCI  18
REXBURG        CLOUDY    23  21  92 S10       29.60R WCI  12
$$

IDZ006-010-011-018-031-032-271000-
CENTRAL IDAHO MOUNTAINS


CITY           SKY/WX    TMP DP  RH WIND       PRES   REMARKS
MCCALL         LGT SNOW  22  18  85 CALM      29.52F FOG
HAILEY         PTCLDY    12   9  85 NW10      29.64R WCI  -1
STANLEY          N/A      6   1  80 VRB3      29.55S
SALMON         CLOUDY    25  12  58 CALM      29.61R
CHALLIS        PTCLDY    14   9  80 SE6       29.59R WCI   5
$$

IDZ002-004-006-007-026-271000-
NORTHERN IDAHO


CITY           SKY/WX    TMP DP  RH WIND       PRES   REMARKS
LEWISTON       SNOW      32  31  96 CALM      29.67F VSB 1/2
LOWELL           N/A     33  30  88 CALM      29.69S
COEUR D`ALENE  FOG       27  26  96 CALM      29.65S VSB 1/2
MULLAN PASS    FOG       14  13  95 CALM      29.46S VSB 1/4
$$




USA.gov is the U.S. government's official web portal to all federal, state and local government web resources and services.